Showing default

COSMOS 2253, 22688

Orbit data source: Space-Track

COSMOS 2253, 22688 is a payload satellite owned by VKS (CIS) in LEO that was launched on Thu, 24 Jun 1993 UTC via a TSIKLON-3 launch vehicle from the Plesetsk Missile And Space Complex (PKMTR). Payloads include a variety of satellites, spacecraft, and rockets equipped with specific instruments for various scientific and technological missions. These include communications satellites like Starlink; space stations such as the ISS; scientific satellites like the Hubble; Earth observation satellites from companies like Planet Labs, Umbra, and HawkEye 360; GPS; miniature CubeSats for education and research; and military/defense satellites.

Loading next visibility...
COSMOS 2253 details
Identifier
22688, 1993-038B
Orbit
LEO
Last TLE update10 hours ago
Origin
Flag of CISVKS (CIS)
ManufacturerNPO PM
MissionDefense Communications
Bus & MotorSTRELA-3, Unknown motor
Mass225 kg wet, 225 kg dry
Launch date (UTC)
1993-06-24 (32 years ago)
Launch vehicle
TSIKLON-3
Launch site
Plesetsk Missile And Space Complex (PKMTR)
Object type
Payload
Rocket body
Debris
Shape & HBRCyl, 1.6 m
Radar Cross Section1.257 m², Medium (>0.1 m² and < 1m²)

Expand to show TLE details & history

TLE from 10 hours ago
0 COSMOS 2253
1 22688U 93038B   25035.97035907  .00000043  00000-0  18375-3 0  9998
2 22688  82.5847 213.8090 0012303  56.6181 303.6085 12.61582640456062
Epoch: 2025-02-04T23:17Z
Definitive object data (Epoch: 2025-02-04T23:17:19.023Z)
Latitude-0.00005°
Longitude89.11172°
Altitude1,413.847 km
Speed7.156 km/s
True Right ascension14h 15m 14s
True Declination0° 00' 00"
Sunlit
Object was in daylight at TLE epoch
Visualization TLE readout
Latitude5.69811°
Longitude89.59893°
Altitude1,412.405 km
Speed7.158 km/s
Apparent Right ascension16h 53m 56s
Apparent Declination-28° 40' 51"
Sunlit
Object is in daylight
Visualization observer readout
Local Sidereal Time10:52:41
Azimuth112.591° SE
Elevation-18.158°
Doppler factor1
Orbital elements
Apogee altitude1,423.327 km
Perigee altitude1,404.154 km
Semi-major axis7,791.877 km
Eccentricity0.0012303
Inclination82.5847°
RAAN213.809°
Arg. of periapsis56.6181°
True anomaly303.49098°
Mean anomaly303.6085°
Eccentric anomaly303.54975°
Mean motion3.15559 °/min
BSTAR0.00018375
Orbital period114.08 mins
Loading maneuver chart data...
Loading historical data...
Loading historical data...
Loading historical data...
Loading historical data...
Loading historical data...
Loading historical data...
Loading historical data...

COSMOS 2253 Visibility forecast

Observer location: undefined°, undefined

Span
Click to sort rows by Start time (UTC) header in descending order
Start Az.
Max El. time (UTC)
Max El. Az.
Max El.
End time (UTC)
End Az.
10 mins2025-02-05 10:50:07.359Z121.826° SE2025-02-05 10:55:07.359Z82.981° E19.458°2025-02-05 11:00:07.359Z41.787° NE
14 mins2025-02-05 12:43:07.359Z194.77° SSW2025-02-05 12:49:07.359Z251.538° W43.856°2025-02-05 12:57:07.359Z3.898° NNE
5 mins2025-02-05 14:44:07.359Z284.012° WNW2025-02-05 14:46:07.359Z299.493° NW13.568°2025-02-05 14:49:07.359Z322.227° NNW
14 mins2025-02-05 22:45:07.359Z9.689° NNE2025-02-05 22:51:07.359Z71.457° E35.281°2025-02-05 22:59:07.359Z145.987° SSE
13 mins2025-02-06 00:40:07.359Z331.618° NNW2025-02-06 00:46:07.359Z274.787° WNW31.028°2025-02-06 00:53:07.359Z212.697° SW
|